Printer-friendly version

IAU Minor Planet Center

Minor Planet Center

MPEC 2000-O41: 2000 JN10

The following Minor Planet Electronic Circular may be linked-to from your own Web pages, but must not otherwise be redistributed electronically.


Read MPEC 2000-O40 Read MPEC 2000-P01


M.P.E.C. 2000-O41                                Issued 2000 July 31, 21:04 UT

     The Minor Planet Electronic Circulars contain information on unusual
         minor planets and routine data on comets.  They are published
   on behalf of Commission 20 of the International Astronomical Union by the
          Minor Planet Center, Smithsonian Astrophysical Observatory,
                          Cambridge, MA 02138, U.S.A.

             Prepared using the Tamkin Foundation Computer Network

             BMARSDEN@CFA.HARVARD.EDU or GWILLIAMS@CFA.HARVARD.EDU
          URL http://cfa-www.harvard.edu/iau/mpc.html  ISSN 1523-6714

                                   2000 JN10

Observations:
     K00J10N 2 1983 05 08.52405 14 34 39.38 -11 57 32.3                      260
     K00J10N 2 1983 05 08.56571 14 34 34.34 -11 58 12.9                      260

Observer details:
260 Siding Spring Observatory-DSS.  Measurers A. Boattini, G. Forti,
    M. Tombelli.  1.2-m U.K. Schmidt.

First and last observations above in comparison with prediction:
Residuals in seconds of arc (or two decimals in degrees), reference and Delta-T
830508 260 1.58- 1.29+    830508 260 1.58- 1.29+    MPO  2778   +1.8 day

Orbital elements:
2000 JN10
Epoch 2000 Sept. 13.0 TT = JDT 2451800.5                Williams
M   7.74256              (2000.0)            P               Q
n   0.29046525     Peri.  254.15762     +0.47586013     +0.83699410
a   2.2580831      Node    47.52286     -0.59915517     +0.53338122
e   0.4282762      Incl.   21.48911     -0.64387128     +0.12225116
P   3.39           H   18.0           G   0.15           U   3
Residuals in seconds of arc
830508 260  1.0-  0.5-    000507 704  0.3+  0.0     000720 413  0.3+  0.2+
830508 260  1.4+  1.0+    000507 704  0.3+  0.3-    000720 413  0.2+  0.8+
000429 704  1.4-  0.7-    000509 704  0.6-  0.1+    000720 413  0.1+  0.8-
000429 704  0.1+  0.6-    000509 704  0.3-  0.7+    000722 413  0.3+  0.2-
000429 704  0.4+  0.1-    000509 704  1.1-  0.2+    000722 413  0.2+  0.2-
000429 704  0.9-  1.2+    000509 704  1.0+  0.4+    000722 413  0.3+  0.2-
000507 704  0.0   0.2-    000509 704  1.2+  0.9+    000728 474  1.6-  1.5+
000507 704  0.3-  0.9-    000509 704  1.0+  1.1-    000728 474  0.2+  0.5-
000507 704  0.7+  0.2-    000509 704  0.8-  0.1+    000728 474  0.0   0.7-

Ephemeris:
2000 JN10                a,e,i = 2.26, 0.43, 21                  q = 1.2910
Date    TT    R. A. (2000) Decl.     Delta      r     Elong.  Phase     V
2000 07 25    14 03.58   -55 28.0    0.619    1.311   104.0    48.7    19.4
2000 08 04    14 25.04   -58 27.2    0.646    1.298   100.5    50.2    19.5
2000 08 14    14 58.56   -61 12.0    0.670    1.291    98.2    50.9    19.6
2000 08 24    15 45.56   -63 20.3    0.694    1.293    96.9    50.9    19.7
2000 09 03    16 45.53   -64 19.2    0.718    1.301    96.4    50.4    19.7
2000 09 13    17 52.89   -63 36.3    0.745    1.318    96.5    49.4    19.8
2000 09 23    18 58.15   -60 58.1    0.778    1.340    96.8    48.0    19.9
2000 10 03    19 54.47   -56 39.9    0.820    1.369    97.1    46.5    20.0
2000 10 13    20 40.46   -51 13.7    0.872    1.404    97.1    44.8    20.2
2000 10 23    21 17.79   -45 12.0    0.938    1.443    96.6    43.2    20.3
2000 11 02    21 48.86   -39 00.1    1.018    1.486    95.4    41.7    20.5
2000 11 12    22 15.59   -32 55.8    1.111    1.533    93.5    40.1    20.7
2000 11 22    22 39.31   -27 09.7    1.219    1.582    91.0    38.6    21.0
2000 12 02    23 00.99   -21 46.4    1.338    1.632    87.9    37.1    21.2
2000 12 12    23 21.29   -16 47.7    1.468    1.685    84.3    35.6    21.4
2000 12 22    23 40.60   -12 12.7    1.607    1.738    80.4    33.9    21.6
2001 01 01    23 59.27   -07 59.7    1.753    1.792    76.1    32.2    21.8
2001 01 11    00 17.50   -04 06.5    1.903    1.846    71.6    30.4    22.0

Gareth V. Williams           (C) Copyright 2000 MPC           M.P.E.C. 2000-O41

Read MPEC 2000-O40 Read MPEC 2000-P01


Our Web policy. Index to the CBAT/MPC/ICQ pages.


Valid HTML 4.01!